This is the latest recevied weather packets stored in our database for station/object DW2488. If no packets are shown the sender has not sent any weather packets the latest 10 day(s).
| Time | Temp. | Humidity | Pressure | Rain* | Wind** | Luminosity | Snow |
|---|---|---|---|---|---|---|---|
| 1788381319 | 11.11° C | 79% | 1009 hPa | 0 mm | - | 14 W/m² | - |
| 1788380419 | 11.67° C | 78% | 1009 hPa | 0 mm | - | 5 W/m² | - |
| 1788379511 | 12.22° C | 77% | 1009.1 hPa | 0 mm | - | 0 W/m² | - |
| 1788378612 | 11.67° C | 79% | 1009.6 hPa | 0 mm | - | 0 W/m² | - |
| 1788377712 | 11.67° C | 78% | 1009.3 hPa | 0 mm | - | 0 W/m² | - |
| 1788376819 | 11.67° C | 78% | 1009.2 hPa | 0 mm | - | 0 W/m² | - |
| 1788375900 | 12.22° C | 78% | 1009 hPa | 0 mm | - | 0 W/m² | - |
| 1788374990 | 12.22° C | 77% | 1009.4 hPa | 0 mm | - | 0 W/m² | - |
| 1788374062 | 12.78° C | 77% | 1010 hPa | 0 mm | - | 0 W/m² | - |
| 1788373162 | 12.78° C | 76% | 1010.2 hPa | 0 mm | - | 0 W/m² | - |
| 1788372251 | 13.33° C | 76% | 1010.6 hPa | 0 mm | - | 0 W/m² | - |
| 1788371351 | 13.33° C | 76% | 1011.5 hPa | 0 mm | - | 0 W/m² | - |
| 1788370451 | 12.78° C | 76% | 1011.2 hPa | 0 mm | - | 0 W/m² | - |
| 1788369552 | 12.22° C | 76% | 1010.5 hPa | 0 mm | - | 0 W/m² | - |
| 1788368673 | 12.22° C | 75% | 1010.3 hPa | 0 mm | - | 0 W/m² | - |
| 1788367760 | 12.22° C | 75% | 1010.6 hPa | 0 mm | - | 0 W/m² | - |
| 1788366853 | 12.22° C | 75% | 1010.9 hPa | 0 mm | - | 0 W/m² | - |
| 1788365960 | 12.22° C | 75% | 1011 hPa | 0 mm | - | 0 W/m² | - |
| 1788365052 | 12.22° C | 75% | 1011.4 hPa | 0 mm | - | 0 W/m² | - |
| 1788364152 | 12.22° C | 75% | 1011.7 hPa | 0 mm | - | 0 W/m² | - |
| 1788363252 | 12.22° C | 75% | 1011.9 hPa | 0 mm | - | 0 W/m² | - |
| 1788362360 | 12.22° C | 75% | 1012 hPa | 0 mm | - | 0 W/m² | - |
| 1788361451 | 12.22° C | 75% | 1012.1 hPa | 0 mm | - | 0 W/m² | - |
| 1788360559 | 11.67° C | 75% | 1012.4 hPa | 0 mm | - | 0 W/m² | - |
| 1788359659 | 11.67° C | 75% | 1012.5 hPa | 0 mm | - | 0 W/m² | - |
* Rain latest hour (hover to see other rain measurements)
** Current wind speed in m/s (hover to see current wind gust speed)